Location: Geçitköy
(36.7327°N, 29.8010°E)
Time: 19:13:40
(UTC+00:00)

Cosmos 1452 Rocket - Pass Details

Date: 12 January 2026
Orbit: 762 x 771 km, 74.1° (Epoch: 10 February)

Event Time Altitude Azimuth Distance (km) Brightness Sun altitude
Rises 15:45:49 0° 170° (S) 3,213 6.9 -8.3°
Reaches altitude 10° 15:48:25 10° 160° (SSE) 2,293 6.0 -8.8°
Maximum altitude 15:52:55 30° 100° (E) 1,343 4.3 -9.6°
Drops below altitude 10° 15:57:26 10° 40° (NE) 2,312 5.5 -10.5°
Enters shadow 15:57:48 - 38° (NE) 2,436 5.6 -10.5°
